SkyBee-AO2

operational
NORAD ID: 64544 Int'l Des: 2025-135 Owner: CNSTR Country: D
LEOCIRCULARRETROGRADESSO

About SkyBee-AO2

Description loading...

Live Position

Loading 3D Globe...

Upcoming Passes

Altitude History

Altitude vs Time

uPlot chart will show altitude changes over time

Two-Line Element Set

1 64544U 25135S 26061.07909769 .00004179 00000-0 20049-3 0 9990
2 64544 97.4601 177.0473 0002726 133.4906 226.6555 15.19430295 38566
Epoch: Mar 2, 2026 • Age: 30 hours

Current Status

Altitude 525.3 km
Velocity 7.60 km/s
Sub-Earth Point -45.26°S, 103.27°E
Launch Date Jun 23, 2025
Age 0.6 years
Type other

Technical Details

Classification Payload
Mass 110.00 kg
Dry Mass 110.00 kg
Total Mass 110.00 kg
Length 0.40 m
Diameter 0.20 m
Span 1.00 m
Shape Box+ 2 pan
Manufacturer NANAV
Bus Type Cubesat 16U MP42
Phase Status In Orbit
Owner/State CNSTR/D

Large Constellations

Loading constellations...